www.pogodaiklimat.ru

Погода и климат >> Архив погоды >> Россия >> Ямало-Ненецкий АО >> Харп


ПОГОДА в Харпе

  • Прогноз погоды в Харпе
  • Монитор погоды в Харпе

АРХИВ ПОГОДЫ в Харпе

Время (UTC), дата Ветер
(напр.,м/с)
 
Видим.   Явления Облачность Т
(С)
Тd
(С)
f
(%)
Тe
(С)
Тes
(С)
Комфортность P
(гПа)
Po
(гПа)
Тmin
(С)
Tmax
(С)
R
(мм)
R24
(мм)
S
(см)
12 11.06 штиль 0 н/о н/о +6.9 +2.2 72 +6 +6 1005.6 996.3
15 11.06 С 2 н/о н/о +6.3 +1.7 72 +4 +4 1004.8 995.6 +7.2
18 11.06 С 4 н/о н/о +4.4 +1.7 83 0 0 1004.1 994.8
21 11.06 С 4 н/о н/о +3.5 +0.4 80 -1 -1 1003.4 994.1
00 12.06 С 6 н/о н/о +2.6 -1.8 73 -3 -3 1003.0 993.6
03 12.06 С 6-10
{12}
н/о н/о +3.5 -3.1 62 -2 -2 1002.6 993.3 +2.5
06 12.06 С 7-12
{12}
н/о н/о +4.9 -4.2 52 0 0 1001.6 992.4
09 12.06 СЗ 5-11
{12}
н/о н/о +6.1 -5.1 44 +2 +2 1002.1 992.9
12 12.06 С 5
{11}
н/о н/о +5.6 -5.0 46 +2 +2 1002.2 992.9
15 12.06 СЗ 2 н/о н/о +4.6 -3.1 57 +2 +2 1001.4 992.1 +6.6
18 12.06 З 2 н/о н/о +3.1 -1.9 70 0 0 1000.5 991.1
21 12.06 СЗ 2 н/о н/о +2.4 -3.4 66 -0 -0 999.0 989.7
00 13.06 С 4 н/о н/о +1.1 -4.7 65 -4 -4 998.9 989.5
03 13.06 С 3 н/о н/о +0.8 -4.8 66 -3 -3 998.1 988.7 -0.6
06 13.06 С 4 н/о н/о +2.1 -6.5 53 -2 -2 998.1 988.8
12 13.06 С 5
{14}
н/о н/о +1.9 -5.4 58 -3 -3 999.7 990.4
18 13.06 СЗ 7-12
{12}
н/о н/о +0.5 -6.8 58 -6 -6 998.5 989.1
00 14.06 С 9-17
{17}
н/о н/о +0.1 -4.4 72 -7 -7 995.5 986.1
03 14.06 С 7-16
{20}
н/о н/о +0.8 -4.9 66 -6 -6 996.4 987.1 -0.6 0.5
06 14.06 С 10-17
{20}
н/о н/о +1.4 -4.2 66 -6 -6 996.8 987.5
09 14.06 С 5
{19}
н/о н/о +2.8 -5.3 55 -2 -2 999.9 990.6
12 14.06 СЗ 7-13
{16}
н/о н/о +4.7 -3.7 54 -0 -0 1000.9 991.6
15 14.06 СЗ 7-12
{15}
н/о н/о +4.9 -2.9 57 -0 -0 1001.4 992.1 +5.1
18 14.06 СЗ 5
{12}
н/о н/о +3.0 -3.3 63 -2 -2 1000.6 991.3
21 14.06 З 2 н/о н/о +2.6 -2.7 68 -0 -0 1000.6 991.3
00 15.06 З 2 н/о н/о +2.4 -2.3 71 -1 -1 1000.1 990.8
03 15.06 ЮЗ 4 н/о н/о +2.9 +0.3 83 -2 -2 999.5 990.2 +2.1
06 15.06 З 4 н/о н/о +5.8 -1.2 61 +2 +2 999.2 990.0
09 15.06 З 4 н/о н/о +8.0 -1.7 50 +5 +5 999.1 989.9
12 15.06 З 3 н/о н/о +7.0 -1.2 56 +5 +5 999.5 990.3
15 15.06 СЗ 2 н/о н/о +6.3 -1.1 59 +4 +4 999.6 990.4 +9.3
18 15.06 С 3 н/о н/о +4.4 -0.3 71 +1 +1 999.7 990.4
21 15.06 С 3 н/о н/о +3.2 -0.5 77 -1 -1 999.2 989.9
00 16.06 С 2 н/о н/о +3.1 -0.6 77 0 0 999.3 990.0
03 16.06 С 3 н/о н/о +3.7 -3.1 61 0 0 999.3 990.0 +2.8
06 16.06 В 1 н/о н/о +6.5 -4.4 46 +6 +6 999.0 989.8
09 16.06 З 2 н/о н/о +8.2 -4.4 41 +7 +7 998.9 989.7
12 16.06 З 4 н/о н/о +9.8 -3.7 38 +8 +8 998.4 989.3
15 16.06 З 2 н/о н/о +7.9 -2.0 50 +6 +6 998.3 989.2 +10.4
18 16.06 Ю 1 н/о н/о +4.8 0.0 71 +4 +4 997.2 988.0
21 16.06 штиль 0 н/о н/о +3.8 -0.5 73 +3 +3 995.5 986.2
00 17.06 З 2 н/о н/о +5.2 +1.5 77 +3 +3 994.7 985.5
03 17.06 С 3 н/о н/о +5.1 -0.7 66 +2 +2 995.2 986.0 +3.6
06 17.06 З 4 н/о н/о +7.1 -2.7 50 +4 +4 995.8 986.6
09 17.06 СЗ 4 н/о н/о +7.2 -2.1 52 +4 +4 996.8 987.7

 

Местоположение метеостанции Харп (Ямало-Ненецкий АО, Россия): широта 66.80 долгота 65.78 высота над уровнем моря 76 м.

В архиве по умолчанию представлена погода в Харпе за последнюю неделю. Архивные данные за месяц целиком и за предыдущие месяцы, начиная с января 2011 года, Вы можете получить, выбрав интересующий диапазон дат из раскрывающегося списка и нажав кнопку "Ввод!".


*Определитесь, кто Вы:
робот инопланетянин человек

Внимание! Время в таблицах - всемирное. Для получения местного времени необходимо прибавить поправку, которая равна 5 ч.

Смотрите также архив погоды в соседних городах и на ближайших метеорологических станциях:

Погода в Салехарде (Ямало-Ненецкий АО, Россия) (49 км)
Погода в Елецкой (Коми, Россия) (80 км)
Погода в Белоярске (Ямало-Ненецкий АО, Россия) (103 км)
Погода в Питляре (Ямало-Ненецкий АО, Россия) (108 км)
Погода в Воркуте (Коми, Россия) (109 км)
Погода в Полуе (Ямало-Ненецкий АО, Россия) (155 км)
Погода в Мужах (Ямало-Ненецкий АО, Россия) (165 км)
Погода в Петруни (Коми, Россия) (225 км)
Погода в Харуте (Ненецкий АО, Россия) (274 км)
Погода в Усть-Каре (Ненецкий АО, Россия) (275 км)

Пояснения к столбцам:

Ветер - указаны скорость ветра в м/с - средняя за 10 мин, порывы в срок и между сроками (в фигурных скобках) и направление, откуда дует ветер: С - северный, СВ - северо-восточный, В - восточный, ЮВ - юго-восточный, Ю - южный, ЮЗ - юго-западный, З - западный, СЗ - северо-западный.
Видимость - горизонтальная дальность видимости в метрах или километрах. При видимости от 1 до 10 км при отсутствии осадков обычно наблюдается дымка, при ухудшении видимости до 1 км и менее - туман. В сухую погоду видимость может ухудшаться дымом, пылью или мглою.
Явления - указаны атмосферные явления, наблюдавшиеся в срок или в последний час перед сроком; фигурными скобками обозначены явления, наблюдавшиеся между сроками (за 1-3 часа до срока); квадратными скобками обозначены град или гололедные отложения с указанием их диаметра в мм.
Облачность - указаны через наклонную черту общая и нижняя облачность в баллах и высота нижней границы облаков в метрах; квадратными скобками обозначены формы облаков: Ci - перистые, Cs - перисто-слоистые, Cc - перисто-кучевые, Ac - высококучевые, As - высокослоистые, Sc - слоисто-кучевые, Ns - слоисто-дождевые, Cu - кучевые, Cb - кучево-дождевые. Подробнее классификацию облаков см. в Атласе облаков (PDF).
T - Температура воздуха - температура, измеренная на высоте 2 м над землей.
Td - Температура точки росы - температура, при понижении до которой содержащийся в воздухе водяной пар достигнет насыщения.
f - Относительная влажность воздуха - влажноcть воздуха, измеренная на высоте 2 м над землей.
Te - Эффективная температура - температура, которую ощущает одетый по сезону человек в тени. Характеристика душности погоды. При расчете учитывается влияние влажности воздуха и скорости ветра на теплоощущения человека.
Tes - Эффективная температура на солнце - температура, которую ощущает человек, с поправкой на солнечный нагрев. Характеристика знойности погоды. Зависит от высоты солнца над горизонтом, облачности и скорости ветра. Ночью, в пасмурную погоду, а также при ветре 12 м/с и более поправка равна нулю.
P - Атмосферное давление - приведенное к уровню моря атмосферное давление.
Po - Атмосферное давление - измеренное на уровне метеостанции атмосферное давление.
Tmin - Минимальная температура - минимум температуры воздуха на высоте 2 м над землей.
Tmax - Максимальная температура - максимум температуры воздуха на высоте 2 м над землей.
R - Количество осадков - Количество выпавших осадков за период времени, мм. При наведении курсора мыши на число - период времени, за который выпало указанное количество осадков.
R24 - Количество осадков - Количество выпавших осадков за 24 часа, мм.
S - Снежный покров - Высота снежного покрова, см. При наведении курсора мыши на число - состояние снежного покрова и степень покрытия местности в баллах.